Temperature
12 10 10 10 11 12 12 12 11 11 11 10 10 10 10 10 9 9 9 9 8 8 7 7 6 6 6 6 6 6 5 5 5 5 5 5 5 5 5 5 5 5 5 5
10 9 11 12 12 12 11 11 10 10 11 10 9 9 10 9 9 9 9 8 8 7 7 6 6 6 6 5 5 5 5 5 5 5 5 4 4 4 4 4 4 4 4 4
10 10 11 11 11 11 10 10 10 9 9 10 9 8 9 9 9 9 8 8 7 6 6 6 5 5 5 5 5 5 5 4 4 4 4 4 4 4 3 3 4 3 3 3
9 10 10 10 10 10 9 10 10 9 8 7 8 7 8 8 8 8 8 7 7 6 6 5 5 5 4 4 4 4 4 4 4 4 4 4 3 3 3 3 3 3 3 3
8 9 9 9 9 9 8 9 9 9 8 7 8 7 7 8 7 7 7 7 6 6 5 5 5 4 4 4 4 4 4 4 3 3 3 3 3 3 3 2 2 2 2 2
8 8 8 8 8 9 8 8 8 8 7 6 7 7 7 7 7 7 7 7 6 5 5 4 4 4 3 3 3 3 3 3 3 3 3 3 2 2 2 2 2 2 2 2
7 8 8 8 7 7 8 6 6 6 6 6 7 7 7 7 7 7 6 6 6 5 5 4 4 3 3 3 3 3 3 2 2 2 2 2 2 2 2 2 2 1 1 2
7 7 7 7 7 6 6 7 6 6 6 7 6 6 6 7 7 7 6 6 5 5 4 4 3 3 3 2 2 2 2 2 2 2 2 1 1 1 1 1 1 1 1 1
7 6 6 7 7 7 6 6 7 6 5 5 6 7 6 6 6 6 5 5 5 5 4 3 3 3 2 2 2 2 1 2 1 1 1 1 1 1 1 1 1 0 0 0
7 5 6 6 6 6 6 6 5 5 5 6 7 7 6 5 5 5 5 4 4 4 4 3 2 2 2 2 1 1 1 1 1 1 1 0 0 0 0 0 0 -0 -0 -0
6 4 5 5 4 5 5 5 5 5 5 5 5 6 6 6 5 5 4 4 4 3 3 2 2 1 1 1 1 0 1 0 1 0 0 0 0 0 -0 -0 -1 -1 -1 -1
5 4 4 4 5 5 5 5 5 4 4 4 4 5 6 5 5 4 4 4 4 3 3 2 2 1 0 0 0 0 0 0 0 -0 -0 -0 -0 -0 -1 -1 -1 -1 -1 -1
4 3 3 4 4 3 3 4 4 4 3 3 4 5 5 4 4 4 4 3 3 3 2 1 1 0 -0 -0 -0 -0 -0 -0 -1 -0 -0 -1 -1 -1 -1 -1 -1 -1 -1 -1
4 2 3 4 4 3 3 3 3 3 2 3 4 4 4 4 4 4 3 3 2 2 1 1 0 -0 -0 -1 -1 -1 -1 -1 -1 -1 -1 -1 -1 -2 -2 -2 -2 -2 -2 -2
2 2 2 2 3 3 3 2 2 2 2 3 4 4 3 3 3 3 3 2 2 1 1 0 -0 -1 -1 -1 -1 -1 -1 -1 -1 -1 -1 -2 -2 -2 -2 -2 -2 -2 -2 -2
1 1 1 1 2 2 2 2 2 2 2 2 2 2 3 3 3 3 2 2 1 1 0 -0 -1 -1 -1 -1 -1 -2 -2 -2 -2 -2 -2 -2 -2 -2 -2 -2 -2 -2 -2 -2
0 0 1 2 1 1 1 1 1 1 1 1 1 1 2 1 1 1 1 1 0 -0 -1 -1 -1 -1 -1 -2 -2 -2 -2 -2 -2 -2 -2 -2 -3 -3 -2 -3 -3 -3 -3 -3
-1 -0 0 1 1 1 2 2 1 1 0 0 0 0 1 1 1 1 1 -0 -0 -1 -1 -1 -2 -2 -2 -2 -2 -2 -3 -3 -3 -3 -3 -3 -3 -3 -3 -3 -3 -3 -3 -3
-1 -0 0 0 1 1 2 1 0 -0 -0 -0 -0 -0 0 0 -0 -0 -0 -1 -1 -2 -2 -2 -2 -2 -2 -3 -3 -3 -3 -3 -3 -3 -3 -3 -3 -3 -3 -3 -3 -4 -4 -4
-2 -1 -1 0 1 1 2 -0 -0 -0 -0 -0 -0 -1 -1 -1 -2 -2 -1 -2 -2 -2 -2 -2 -2 -3 -3 -3 -3 -3 -4 -4 -4 -4 -4 -4 -4 -4 -4 -4 -4 -4 -4 -4
-2 -2 -1 -0 0 1 -0 -1 -1 0 0 -1 -1 -1 -1 -2 -2 -2 -2 -2 -3 -3 -3 -3 -3 -3 -3 -3 -3 -4 -4 -4 -4 -4 -4 -4 -4 -4 -4 -4 -4 -4 -4 -4
-2 -2 -2 -1 -0 0 -2 -2 -1 -1 -1 -1 -1 -1 -2 -2 -2 -3 -3 -3 -3 -3 -3 -3 -3 -3 -4 -4 -4 -4 -4 -4 -4 -4 -5 -5 -5 -5 -5 -5 -5 -5 -5 -5
-1 -1 -1 -1 -0 -1 -1 -1 -0 -1 -1 -1 -1 -2 -2 -3 -3 -3 -3 -3 -4 -4 -4 -4 -4 -4 -4 -4 -4 -4 -5 -5 -5 -5 -5 -5 -5 -5 -5 -5 -5 -5 -5 -5
-2 -1 -1 -2 -2 -1 -1 -1 -1 -1 -1 -1 -2 -2 -2 -3 -3 -3 -3 -4 -4 -4 -4 -4 -4 -4 -4 -5 -5 -5 -5 -5 -5 -5 -5 -5 -5 -5 -5 -6 -6 -6 -6 -6
-1 -3 -2 -3 -3 -1 -1 -1 -1 -1 -2 -2 -2 -2 -3 -3 -3 -4 -4 -4 -4 -4 -4 -4 -4 -5 -5 -5 -5 -5 -5 -5 -5 -5 -5 -5 -5 -6 -6 -6 -6 -6 -6 -6
-3 -3 -3 -2 -2 -2 -1 -1 -1 -2 -2 -2 -2 -3 -3 -3 -3 -4 -4 -4 -4 -4 -5 -5 -5 -5 -5 -5 -5 -5 -5 -6 -6 -6 -6 -6 -6 -6 -6 -6 -6 -6 -6 -6
Wind_Speed
3 2 2 3 4 4 4 4 4 2 1 3 6 6 5 5 5 4 3 3 3 2 2 3 3 3 2 2 2 2 2 1 1 1 1 1 1 2 2 3 5 5 5 6
2 3 3 2 2 4 5 5 3 2 1 4 5 8 6 6 6 4 4 3 3 2 2 2 3 3 2 1 2 1 1 1 1 1 1 1 1 1 1 2 4 5 5 5
3 0 0 2 2 3 4 4 4 4 4 4 4 6 6 5 5 5 4 3 3 3 3 2 2 2 2 1 1 1 1 1 1 1 1 1 1 1 1 1 1 3 4 4
1 1 1 1 2 3 4 3 3 3 3 3 3 5 6 5 5 5 5 3 3 2 2 2 2 2 2 1 1 1 1 1 1 1 1 0 1 1 1 1 1 2 3 4
1 1 1 2 2 3 1 3 4 4 4 4 5 4 5 4 5 6 5 3 3 3 3 2 2 2 2 2 2 1 1 1 1 1 1 1 1 1 1 1 1 1 1 3
1 1 1 1 2 2 0 1 2 3 2 4 6 5 4 3 4 4 4 4 4 3 3 3 2 2 2 2 2 1 1 1 1 1 1 1 1 1 1 1 1 1 1 1
2 3 2 1 0 0 1 1 1 1 2 5 3 4 4 1 1 2 2 2 3 4 4 3 3 2 2 2 1 1 1 1 1 1 1 1 1 1 1 1 1 1 1 1
2 3 4 2 1 2 3 2 2 3 4 3 3 5 3 1 2 2 2 0 1 2 3 3 3 2 2 1 1 0 0 0 1 1 1 1 1 1 1 1 1 2 1 1
2 1 2 1 1 1 2 2 1 1 3 4 5 3 1 0 1 1 2 1 1 2 2 3 2 2 2 2 1 1 1 0 0 0 1 1 1 1 1 1 1 1 1 2
1 1 2 2 1 2 2 0 1 2 2 4 6 4 3 2 2 1 1 2 1 1 1 2 2 2 2 2 1 1 0 0 0 0 1 1 1 1 1 1 1 1 2 2
1 1 2 3 5 5 3 2 2 3 3 3 4 3 2 1 1 1 1 1 1 1 1 1 1 1 1 1 1 1 1 1 1 1 0 1 1 1 1 1 1 1 1 2
1 1 2 3 1 1 3 4 4 3 4 4 3 5 2 4 3 2 2 2 2 1 1 1 1 1 1 1 1 1 1 1 0 0 0 1 1 1 1 1 2 2 2 2
0 2 1 1 1 1 3 4 3 2 2 4 4 5 1 2 2 2 2 2 2 1 1 1 1 1 1 0 0 0 0 0 0 0 0 1 1 1 1 1 2 2 2 2
1 2 4 5 2 2 4 4 4 4 4 5 7 7 5 4 3 3 3 2 2 2 1 0 1 1 1 1 0 0 0 0 0 1 0 1 1 1 1 1 2 2 2 2
1 2 3 5 5 3 5 6 7 9 8 7 7 6 7 5 4 3 3 2 3 3 2 2 2 2 1 1 1 1 1 0 0 1 1 1 1 1 1 2 2 2 2 3
1 1 1 4 4 4 6 8 9 9 8 9 9 10 6 4 4 4 4 3 3 4 4 4 3 2 1 1 1 1 1 1 1 1 1 1 1 1 1 2 2 2 2 2
2 2 2 3 2 4 7 8 9 6 6 6 9 7 4 5 5 6 5 4 4 5 4 4 3 2 1 1 1 1 1 1 1 1 1 1 1 1 2 2 2 2 2 2
3 3 2 2 1 6 5 1 4 5 5 5 5 5 4 5 6 5 3 4 5 5 5 4 3 2 2 1 0 0 0 0 1 1 1 1 1 2 2 2 2 3 2 3
2 3 2 2 4 7 3 1 2 2 5 3 5 6 5 5 5 2 3 4 4 4 4 4 2 2 2 1 1 1 0 0 1 1 1 2 2 2 2 3 3 3 3 3
2 1 2 3 4 5 3 2 1 2 3 2 1 4 4 4 3 3 4 5 5 4 4 3 2 2 2 1 1 0 0 1 1 2 2 2 2 2 3 3 3 2 3 3
2 2 4 5 5 5 1 1 2 1 4 3 2 2 2 2 3 4 5 4 4 4 4 4 3 2 2 1 1 0 1 1 1 2 2 2 3 3 3 2 2 3 3 3
5 5 5 4 5 6 1 2 3 3 2 2 2 2 2 3 3 4 4 4 4 4 3 3 2 2 2 2 1 1 1 2 2 2 2 2 3 3 2 2 3 3 3 3
5 5 3 5 5 2 3 3 2 1 2 2 3 3 2 3 3 4 4 4 3 3 3 3 2 2 2 2 1 1 1 1 2 2 2 3 3 3 2 2 3 3 3 3
3 1 2 3 4 3 3 3 2 1 2 3 3 3 2 3 4 4 4 3 3 3 2 2 2 2 2 2 2 1 1 1 1 2 2 3 3 3 3 2 2 2 3 3
2 3 3 5 5 4 3 2 1 1 2 3 3 2 2 2 3 3 3 3 3 3 2 1 1 2 2 2 2 2 2 2 1 2 3 3 3 3 3 3 3 3 3 3
3 4 4 5 3 3 3 1 1 1 3 3 3 3 3 2 3 3 3 2 2 2 2 1 1 1 2 2 2 3 2 2 2 2 2 2 2 2 2 3 4 5 5 7
Wind_Direction
173 198 208 215 231 275 301 280 286 331 17 269 253 253 224 203 220 221 209 201 191 180 143 134 128 120 105 80 75 78 69 49 38 20 7 22 14 9 24 30 33 29 19 10
177 230 253 279 259 273 290 282 291 309 306 280 269 264 241 207 207 211 213 201 188 174 176 140 131 117 105 96 81 84 70 56 42 24 5 354 347 354 23 26 30 25 15 10
193 153 233 256 263 260 270 278 286 295 307 265 289 274 231 212 198 203 214 194 178 184 186 155 131 118 113 96 82 50 44 58 60 42 41 17 8 2 13 7 3 10 7 10
217 314 275 249 270 274 266 315 312 294 282 257 218 277 242 207 198 206 208 201 187 174 171 161 159 141 143 116 79 64 57 50 55 52 35 9 335 328 326 320 325 355 4 6
154 1 276 245 295 302 334 343 309 275 266 283 241 250 256 199 217 217 207 198 174 164 166 171 166 146 124 108 92 52 62 44 34 22 355 329 330 334 341 339 324 327 357 3
207 337 345 351 2 359 337 312 290 261 255 264 229 220 260 217 214 196 193 192 181 169 164 161 143 121 104 88 91 70 60 30 25 12 347 342 356 344 343 334 315 308 317 347
196 186 151 99 72 315 277 103 4 299 238 248 233 223 246 206 65 132 177 198 193 167 161 158 150 153 133 110 98 73 51 12 8 359 347 342 340 328 312 315 309 318 318 321
216 213 170 171 165 199 234 214 193 242 253 283 259 232 231 96 64 84 105 133 204 159 158 161 163 164 145 127 123 128 274 322 347 351 344 336 345 342 329 329 308 292 287 294
212 192 113 108 358 296 206 230 301 295 282 274 251 232 264 159 45 127 140 161 247 173 152 157 156 155 156 159 172 184 223 282 334 354 341 337 347 352 330 316 315 298 302 310
305 223 169 150 204 268 296 196 130 197 248 264 263 239 230 210 243 243 228 238 252 180 154 160 164 168 177 176 170 176 206 287 285 266 281 320 325 322 321 312 310 308 311 322
318 172 183 183 207 200 186 197 214 234 248 248 276 271 2 95 170 213 271 262 225 218 187 186 158 137 147 152 172 201 209 235 248 223 265 311 316 318 321 311 311 322 314 308
276 185 229 221 218 311 228 211 185 201 245 238 266 271 6 44 47 32 356 343 346 6 145 142 135 115 120 156 188 194 221 246 243 233 272 286 305 314 318 317 323 331 309 295
166 159 196 267 251 242 251 238 222 227 248 235 241 259 329 29 34 13 348 334 347 355 64 79 112 156 184 196 191 247 265 179 33 325 244 279 296 306 298 312 321 317 306 299
318 198 209 225 249 200 236 231 216 204 222 242 241 260 281 306 334 345 343 346 337 324 323 297 268 221 205 201 209 256 336 62 13 333 253 253 274 288 300 306 300 302 308 302
67 226 245 274 290 260 241 233 221 222 230 236 259 271 282 304 318 330 335 338 336 328 320 291 281 256 225 211 222 236 245 173 275 268 277 273 278 282 293 302 300 299 305 307
95 228 281 277 266 260 259 241 229 236 246 253 272 281 283 306 325 330 336 334 322 316 312 306 295 274 256 238 245 253 264 271 258 244 259 293 300 303 295 291 292 296 295 294
177 179 224 258 278 311 265 232 214 218 225 228 247 260 313 324 322 320 321 326 315 314 313 306 294 282 271 256 224 226 253 274 262 274 291 301 308 303 301 304 300 287 285 289
177 190 213 258 314 249 245 198 190 217 250 236 253 287 311 307 311 309 326 335 323 325 318 313 312 323 330 349 36 6 9 304 288 291 302 307 308 304 307 301 291 286 287 290
215 187 211 218 248 266 250 203 153 205 274 240 256 285 308 327 322 314 1 355 335 325 321 319 321 330 347 4 76 79 24 317 297 296 306 309 298 289 291 292 295 300 299 297
16 123 208 213 234 250 252 125 87 103 270 326 294 298 318 344 318 297 346 349 340 340 340 342 352 12 19 6 54 82 282 271 287 304 314 315 305 291 287 289 297 304 299 297
148 197 219 230 239 261 262 122 98 158 262 320 326 308 308 272 259 299 333 341 345 348 354 0 6 12 3 0 56 39 320 299 319 335 324 316 310 300 293 296 297 300 302 306
185 186 202 202 225 251 149 126 187 236 311 332 331 312 292 284 304 320 330 336 346 349 352 1 8 1 1 14 34 356 321 328 347 339 323 314 310 307 309 305 302 302 304 305
206 200 203 206 222 237 188 196 222 283 304 317 314 309 304 301 302 313 321 331 335 337 341 353 360 353 359 3 9 351 327 350 349 335 323 317 312 309 307 304 302 302 303 302
227 202 230 264 267 255 221 230 250 273 289 301 303 299 291 284 294 304 312 321 328 331 336 353 3 353 343 349 356 341 339 358 345 321 313 311 314 315 313 308 306 302 300 298
237 186 234 255 274 286 252 219 234 322 315 306 311 299 279 276 288 290 298 304 311 321 330 349 339 327 330 347 345 342 349 0 341 323 318 315 314 311 314 315 311 303 285 290
219 200 211 241 237 231 263 286 358 297 293 295 300 306 309 283 275 288 291 298 307 313 322 329 327 328 328 336 336 340 347 355 337 323 318 311 312 314 314 311 315 313 301 302
Height
1495 1498 1499 1498 1497 1496 1495 1496 1497 1497 1498 1500 1500 1499 1499 1499 1500 1501 1502 1502 1503 1504 1505 1506 1506 1506 1506 1506 1506 1506 1506 1505 1505 1505 1504 1504 1503 1503 1503 1503 1502 1502 1501 1501
1496 1499 1496 1495 1495 1495 1496 1498 1499 1499 1498 1499 1499 1498 1495 1496 1497 1498 1499 1499 1501 1501 1502 1503 1503 1503 1504 1504 1504 1504 1504 1503 1503 1503 1503 1502 1502 1501 1501 1501 1500 1500 1499 1499
1496 1497 1495 1495 1496 1497 1497 1499 1500 1500 1499 1499 1501 1499 1494 1492 1493 1495 1496 1497 1498 1499 1499 1500 1500 1501 1502 1502 1502 1501 1501 1501 1501 1501 1501 1500 1500 1499 1499 1498 1498 1497 1497 1497
1496 1496 1496 1496 1497 1498 1500 1498 1498 1500 1504 1504 1501 1506 1493 1490 1491 1492 1493 1494 1495 1496 1497 1497 1498 1498 1499 1500 1499 1499 1499 1499 1499 1499 1498 1497 1497 1496 1496 1496 1495 1495 1494 1494
1497 1498 1498 1498 1499 1499 1500 1499 1499 1499 1502 1505 1501 1506 1494 1488 1490 1489 1489 1491 1492 1493 1494 1495 1496 1496 1497 1497 1497 1497 1497 1497 1497 1496 1496 1495 1495 1495 1494 1494 1493 1492 1492 1491
1499 1499 1499 1500 1500 1500 1501 1501 1500 1501 1504 1510 1499 1502 1493 1488 1485 1485 1486 1488 1490 1491 1492 1493 1494 1494 1495 1494 1495 1495 1494 1494 1494 1494 1494 1493 1492 1492 1491 1491 1490 1489 1489 1488
1499 1499 1500 1501 1502 1502 1502 1507 1512 1511 1511 1505 1493 1495 1492 1484 1482 1483 1485 1486 1487 1488 1489 1490 1491 1492 1492 1491 1492 1492 1492 1492 1491 1491 1491 1490 1490 1489 1488 1488 1487 1487 1486 1485
1500 1502 1500 1501 1502 1505 1504 1505 1513 1513 1508 1499 1496 1494 1488 1483 1482 1482 1484 1485 1486 1486 1487 1488 1489 1489 1489 1489 1489 1489 1489 1489 1489 1489 1488 1488 1487 1487 1486 1485 1485 1484 1483 1482
1499 1501 1501 1501 1502 1502 1503 1506 1504 1509 1508 1508 1494 1486 1486 1483 1482 1482 1483 1484 1485 1485 1485 1486 1486 1487 1487 1487 1487 1487 1487 1486 1486 1486 1486 1485 1485 1484 1484 1483 1482 1482 1481 1480
1497 1504 1502 1502 1503 1503 1503 1503 1508 1511 1510 1504 1489 1483 1486 1484 1483 1482 1482 1482 1483 1484 1484 1484 1484 1484 1485 1485 1484 1484 1484 1484 1483 1483 1483 1482 1482 1482 1481 1480 1480 1479 1478 1478
1498 1505 1505 1504 1504 1503 1505 1506 1506 1507 1504 1505 1499 1491 1480 1480 1480 1481 1481 1482 1482 1482 1482 1482 1482 1483 1483 1482 1482 1482 1481 1481 1480 1480 1480 1480 1479 1479 1478 1477 1477 1476 1476 1475
1498 1502 1506 1502 1500 1500 1500 1500 1504 1510 1507 1503 1502 1495 1481 1480 1480 1481 1481 1482 1481 1480 1480 1480 1480 1480 1480 1480 1479 1479 1479 1479 1478 1477 1477 1477 1476 1476 1475 1475 1474 1474 1473 1473
1500 1503 1507 1504 1505 1503 1502 1499 1500 1503 1505 1504 1502 1494 1482 1481 1481 1482 1481 1481 1480 1479 1479 1478 1478 1477 1477 1477 1476 1476 1476 1476 1476 1475 1474 1474 1474 1473 1473 1472 1472 1471 1471 1470
1499 1503 1504 1501 1496 1499 1501 1500 1500 1503 1505 1500 1493 1488 1484 1482 1482 1481 1481 1480 1479 1478 1477 1476 1475 1475 1475 1474 1473 1473 1473 1473 1473 1473 1472 1471 1471 1470 1470 1470 1469 1468 1468 1467
1499 1502 1501 1499 1496 1496 1497 1497 1498 1500 1497 1497 1489 1486 1484 1483 1482 1480 1479 1478 1478 1477 1476 1474 1473 1473 1472 1471 1471 1470 1470 1470 1470 1470 1469 1469 1468 1468 1467 1467 1466 1466 1465 1465
1500 1502 1503 1501 1497 1497 1496 1494 1494 1495 1494 1492 1489 1487 1482 1481 1481 1479 1478 1477 1476 1475 1474 1472 1471 1470 1469 1468 1468 1467 1467 1467 1467 1467 1467 1466 1466 1465 1465 1464 1463 1463 1463 1462
1501 1503 1502 1499 1498 1497 1496 1490 1490 1491 1490 1490 1489 1485 1481 1481 1479 1478 1477 1476 1475 1473 1472 1470 1469 1467 1466 1466 1465 1465 1465 1464 1464 1464 1464 1464 1463 1463 1462 1461 1461 1460 1460 1460
1500 1501 1501 1501 1502 1502 1487 1482 1483 1485 1485 1485 1483 1482 1481 1480 1478 1477 1475 1474 1472 1471 1469 1467 1466 1465 1464 1463 1463 1463 1462 1462 1462 1462 1461 1461 1461 1460 1459 1459 1458 1458 1457 1457
1497 1499 1500 1501 1499 1489 1484 1482 1483 1485 1484 1481 1481 1479 1479 1478 1476 1474 1473 1472 1471 1469 1467 1465 1464 1463 1462 1461 1461 1460 1460 1460 1460 1459 1459 1459 1458 1458 1457 1456 1456 1455 1455 1454
1498 1499 1501 1497 1496 1491 1482 1482 1481 1484 1484 1480 1478 1478 1477 1477 1477 1474 1472 1470 1469 1467 1465 1463 1462 1460 1459 1459 1459 1458 1458 1457 1457 1457 1457 1457 1456 1455 1455 1454 1453 1453 1452 1451
1501 1500 1500 1496 1493 1486 1482 1481 1482 1486 1483 1479 1477 1476 1476 1476 1476 1473 1470 1468 1467 1465 1463 1462 1460 1459 1458 1457 1457 1456 1456 1455 1455 1455 1455 1454 1454 1453 1452 1452 1451 1450 1449 1449
1494 1496 1497 1494 1492 1487 1482 1481 1482 1481 1478 1477 1476 1475 1474 1473 1472 1470 1468 1466 1464 1463 1461 1460 1459 1458 1457 1457 1456 1455 1454 1454 1454 1454 1453 1452 1452 1451 1450 1449 1449 1448 1447 1446
1486 1486 1485 1486 1484 1479 1478 1477 1477 1477 1476 1475 1474 1473 1472 1470 1469 1467 1466 1464 1462 1461 1460 1459 1458 1457 1456 1455 1455 1454 1453 1453 1452 1452 1451 1451 1450 1449 1448 1448 1447 1446 1445 1444
1483 1481 1482 1482 1478 1476 1475 1475 1475 1475 1474 1473 1472 1471 1469 1468 1467 1465 1464 1462 1461 1460 1458 1457 1456 1455 1455 1454 1453 1453 1452 1452 1451 1450 1450 1449 1448 1447 1447 1446 1445 1444 1443 1442
1479 1481 1481 1480 1476 1474 1472 1472 1472 1472 1472 1471 1469 1468 1467 1465 1464 1463 1461 1460 1459 1458 1457 1456 1455 1454 1453 1453 1452 1452 1451 1450 1449 1449 1448 1447 1446 1445 1445 1444 1443 1442 1441 1441
1476 1477 1478 1475 1472 1472 1471 1470 1470 1469 1469 1468 1467 1465 1464 1463 1461 1460 1459 1458 1457 1456 1455 1454 1454 1453 1452 1451 1451 1450 1450 1449 1448 1447 1446 1445 1445 1444 1443 1442 1441 1440 1440 1439